Location: Sungai Bunut
(2.6333°N, 113.7333°E)
Time: 15:40:03
(UTC+00:00)

Vanguard 3 - Pass Details

Date: 11 December 2023
Orbit: 508 x 3239 km, 33.4° (Epoch: 28 February)

Event Time Altitude Azimuth Distance (km) Brightness Sun altitude
Rises 11:25:55 0° 261° (W) 7,151 13.5 -16.6°
Reaches altitude 10° 11:31:32 10° 269° (W) 6,172 12.7 -17.9°
Maximum altitude 11:48:12 34° 327° (NNW) 4,010 10.7 -21.7°
Enters shadow 11:59:01 15° 22° (NNE) 4,439 10.5 -24.2°
Drops below altitude 10° 12:00:57 10° 28° (NNE) 4,711 - -24.6°
Sets 12:04:37 0° 38° (NE) 5,344 - -25.5°
